,,PA_Meas_PMT16A,,PR_Meas_QMR101_102,,RH_Meas_QMH101,,SR_Meas_QMS101,,TA_Meas_QMH101,,GenWind,,GenWind,
time,status,PA,status,PR,status,RH,status,SR,status,TA,status,DirAvg,status,SpdAvg,
2010-09-26, 00:00:04,VALID,917.796,VALID,0,VALID,96.0932,VALID,0,VALID,19.8948,VALID,88,VALID,0.730469,
2010-09-26, 00:01:04,VALID,917.815,VALID,0,VALID,95.9788,VALID,0,VALID,19.9353,VALID,152,VALID,0.533594,
2010-09-26, 00:02:04,VALID,917.767,VALID,0,VALID,95.9178,VALID,0.107441,VALID,19.9548,VALID,152,VALID,0.399609,
2010-09-26, 00:03:04,VALID,917.753,VALID,0,VALID,95.9026,VALID,0,VALID,19.9353,VALID,152,VALID,0.804297,
2010-09-26, 00:04:04,VALID,917.705,VALID,0,VALID,95.9102,VALID,0,VALID,19.9158,VALID,152,VALID,0.410937,
2010-09-26, 00:05:04,VALID,917.708,VALID,0,VALID,95.9254,VALID,0.107441,VALID,19.8753,VALID,152,VALID,0.392188,
2010-09-26, 00:06:04,VALID,917.703,VALID,0,VALID,95.9788,VALID,0.107441,VALID,19.8768,VALID,152,VALID,0.673047,
2010-09-26, 00:07:04,VALID,917.69,VALID,0,VALID,96.0017,VALID,0,VALID,19.8573,VALID,152,VALID,0.658984,
2010-09-26, 00:08:04,VALID,917.679,VALID,0,VALID,96.0779,VALID,0,VALID,19.8183,VALID,152,VALID,0.779297,
2010-09-26, 00:09:04,VALID,917.68,VALID,0,VALID,96.1389,VALID,0,VALID,19.7988,VALID,152,VALID,0.965625,
2010-09-26, 00:10:04,VALID,917.699,VALID,0,VALID,96.2228,VALID,0.107441,VALID,19.7793,VALID,152,VALID,0.973437,
2010-09-26, 00:11:04,VALID,917.683,VALID,0,VALID,96.2761,VALID,0,VALID,19.7403,VALID,151,VALID,1.01992,
2010-09-26, 00:12:04,VALID,917.711,VALID,0,VALID,96.2837,VALID,0.107441,VALID,19.7013,VALID,151,VALID,0.844922,
2010-09-26, 00:13:04,VALID,917.683,VALID,0,VALID,96.3371,VALID,0,VALID,19.6818,VALID,151,VALID,0.858984,
2010-09-26, 00:14:04,VALID,917.664,VALID,0,VALID,96.3676,VALID,0,VALID,19.6623,VALID,151,VALID,0.942969,
2010-09-26, 00:15:04,VALID,917.68,VALID,0,VALID,96.3905,VALID,0,VALID,19.6428,VALID,151,VALID,0.614844,
2010-09-26, 00:16:04,VALID,917.655,VALID,0,VALID,96.4133,VALID,0,VALID,19.6428,VALID,151,VALID,0.857031,
2010-09-26, 00:17:04,VALID,917.679,VALID,0,VALID,96.4438,VALID,0,VALID,19.6623,VALID,151,VALID,0.846484,
2010-09-26, 00:18:04,VALID,917.681,VALID,0,VALID,96.4515,VALID,0,VALID,19.6428,VALID,151,VALID,0.421875,
2010-09-26, 00:19:04,VALID,917.693,VALID,0,VALID,96.4819,VALID,0,VALID,19.6623,VALID,151,VALID,0.668359,
2010-09-26, 00:20:04,VALID,917.692,VALID,0,VALID,96.5048,VALID,0,VALID,19.6638,VALID,151,VALID,0.500391,
2010-09-26, 00:21:04,VALID,917.665,VALID,0,VALID,96.4896,VALID,0,VALID,19.6623,VALID,151,VALID,0.686719,
2010-09-26, 00:22:04,VALID,917.686,VALID,0,VALID,96.4972,VALID,0,VALID,19.6623,VALID,151,VALID,0.558594,
2010-09-26, 00:23:04,VALID,917.698,VALID,0,VALID,96.4896,VALID,0,VALID,19.6428,VALID,151,VALID,0.714844,
2010-09-26, 00:24:04,VALID,917.692,VALID,0,VALID,96.4972,VALID,0,VALID,19.6623,VALID,150,VALID,0.784766,
2010-09-26, 00:25:04,VALID,917.72,VALID,0,VALID,96.5201,VALID,0,VALID,19.6818,VALID,150,VALID,0.8375,
2010-09-26, 00:26:04,VALID,917.702,VALID,0,VALID,96.4515,VALID,0,VALID,19.6428,VALID,150,VALID,0.663281,
2010-09-26, 00:27:04,VALID,917.699,VALID,0,VALID,96.5277,VALID,0,VALID,19.6428,VALID,150,VALID,0.702734,
2010-09-26, 00:28:04,VALID,917.68,VALID,0,VALID,96.5124,VALID,0,VALID,19.6818,VALID,150,VALID,0.858594,
2010-09-26, 00:29:04,VALID,917.709,VALID,0,VALID,96.5048,VALID,0,VALID,19.6623,VALID,150,VALID,0.865234,
2010-09-26, 00:30:04,VALID,917.69,VALID,0,VALID,96.5506,VALID,0,VALID,19.6818,VALID,150,VALID,0.590234,
2010-09-26, 00:31:04,VALID,917.628,VALID,0,VALID,96.5506,VALID,0,VALID,19.7418,VALID,150,VALID,0.6875,
2010-09-26, 00:32:04,VALID,917.655,VALID,0,VALID,96.5429,VALID,0,VALID,19.7013,VALID,150,VALID,0.396484,
2010-09-26, 00:33:04,VALID,917.629,VALID,0,VALID,96.5429,VALID,0.107441,VALID,19.7208,VALID,150,VALID,0.369922,
2010-09-26, 00:34:04,VALID,917.632,VALID,0,VALID,96.5277,VALID,0,VALID,19.7208,VALID,150,VALID,0.130469,
2010-09-26, 00:35:04,VALID,917.606,VALID,0,VALID,96.4896,VALID,0,VALID,19.7208,VALID,150,VALID,0.40625,
2010-09-26, 00:36:04,VALID,917.62,VALID,0,VALID,96.4438,VALID,0.107441,VALID,19.7013,VALID,150,VALID,0.236328,
2010-09-26, 00:37:04,VALID,917.587,VALID,0,VALID,96.4362,VALID,0,VALID,19.7013,VALID,150,VALID,0.46875,
2010-09-26, 00:38:04,VALID,917.559,VALID,0,VALID,96.4896,VALID,0.107441,VALID,19.7013,VALID,150,VALID,0.381641,
2010-09-26, 00:39:04,VALID,917.525,VALID,0,VALID,96.5048,VALID,0,VALID,19.7013,VALID,150,VALID,0.566016,
2010-09-26, 00:40:04,VALID,917.514,VALID,0,VALID,96.5429,VALID,0,VALID,19.6998,VALID,150,VALID,0.783203,
2010-09-26, 00:41:04,VALID,917.507,VALID,0,VALID,96.5429,VALID,0,VALID,19.6818,VALID,150,VALID,0.492188,
2010-09-26, 00:42:04,VALID,917.483,VALID,0,VALID,96.5734,VALID,0,VALID,19.6818,VALID,150,VALID,0.742188,
2010-09-26, 00:43:04,VALID,917.488,VALID,0,VALID,96.5734,VALID,0,VALID,19.6623,VALID,150,VALID,0.640234,
2010-09-26, 00:44:04,VALID,917.436,VALID,0,VALID,96.5887,VALID,0,VALID,19.6623,VALID,132,VALID,0.780078,
2010-09-26, 00:45:04,VALID,917.421,VALID,0,VALID,96.5963,VALID,0,VALID,19.6818,VALID,128,VALID,0.918359,
2010-09-26, 00:46:04,VALID,917.415,VALID,0,VALID,96.6192,VALID,0,VALID,19.6818,VALID,128,VALID,1.0957,
2010-09-26, 00:47:04,VALID,917.416,VALID,0,VALID,96.6039,VALID,0.107441,VALID,19.6818,VALID,128,VALID,0.686328,
2010-09-26, 00:48:04,VALID,917.41,VALID,0,VALID,96.5811,VALID,0,VALID,19.6623,VALID,128,VALID,0.339063,
2010-09-26, 00:49:04,VALID,917.366,VALID,0,VALID,96.5353,VALID,0.107441,VALID,19.6623,VALID,128,VALID,0.262109,
2010-09-26, 00:50:04,VALID,917.376,VALID,0,VALID,96.4743,VALID,0,VALID,19.6818,VALID,128,VALID,0.716797,
2010-09-26, 00:51:04,VALID,917.385,VALID,0,VALID,96.421,VALID,0.107441,VALID,19.7208,VALID,170,VALID,0.811328,
2010-09-26, 00:52:04,VALID,917.367,VALID,0,VALID,96.3524,VALID,0.107441,VALID,19.7403,VALID,170,VALID,0.730469,
2010-09-26, 00:53:04,VALID,917.372,VALID,0,VALID,96.2914,VALID,0,VALID,19.7403,VALID,170,VALID,0.625,
2010-09-26, 00:54:04,VALID,917.359,VALID,0,VALID,96.2075,VALID,0,VALID,19.7598,VALID,170,VALID,0.567578,
2010-09-26, 00:55:04,VALID,917.346,VALID,0,VALID,96.0932,VALID,0,VALID,19.7403,VALID,170,VALID,0.759766,
2010-09-26, 00:56:04,VALID,917.321,VALID,0,VALID,95.9559,VALID,0,VALID,19.7613,VALID,170,VALID,0.603516,
2010-09-26, 00:57:04,VALID,917.314,VALID,0,VALID,95.8035,VALID,0,VALID,19.7208,VALID,170,VALID,1.0543,
2010-09-26, 00:58:04,VALID,917.293,VALID,0,VALID,95.651,VALID,0,VALID,19.7613,VALID,127,VALID,0.873828,
2010-09-26, 00:59:04,VALID,917.28,VALID,0,VALID,95.5062,VALID,0,VALID,19.7403,VALID,127,VALID,0.533594,
2010-09-26, 01:00:04,VALID,917.278,VALID,0,VALID,95.4147,VALID,0,VALID,19.7208,VALID,127,VALID,0.745313,
2010-09-26, 01:01:04,VALID,917.246,VALID,0,VALID,95.4071,VALID,0,VALID,19.7013,VALID,127,VALID,1.07617,
2010-09-26, 01:02:04,VALID,917.231,VALID,0,VALID,95.3766,VALID,0,VALID,19.7208,VALID,127,VALID,0.647266,
2010-09-26, 01:03:04,VALID,917.216,VALID,0,VALID,95.3994,VALID,0,VALID,19.7208,VALID,127,VALID,0.682422,
2010-09-26, 01:04:04,VALID,917.178,VALID,0,VALID,95.3766,VALID,0,VALID,19.7013,VALID,127,VALID,0.664844,
2010-09-26, 01:05:04,VALID,917.181,VALID,0,VALID,95.4147,VALID,0,VALID,19.7013,VALID,127,VALID,0.741797,
2010-09-26, 01:06:04,VALID,917.137,VALID,0,VALID,95.4299,VALID,0,VALID,19.7013,VALID,127,VALID,0.742969,
2010-09-26, 01:07:04,VALID,917.118,VALID,0,VALID,95.468,VALID,0,VALID,19.6818,VALID,127,VALID,0.649609,
2010-09-26, 01:08:04,VALID,917.083,VALID,0,VALID,95.5062,VALID,0,VALID,19.7223,VALID,127,VALID,0.665625,
2010-09-26, 01:09:04,VALID,917.045,VALID,0,VALID,95.4757,VALID,0,VALID,19.7223,VALID,127,VALID,0.605078,
2010-09-26, 01:10:04,VALID,917.048,VALID,0,VALID,95.4299,VALID,0,VALID,19.6818,VALID,127,VALID,0.564062,
2010-09-26, 01:11:04,VALID,917.02,VALID,0,VALID,95.4375,VALID,0.107441,VALID,19.6608,VALID,127,VALID,0.557031,
2010-09-26, 01:12:04,VALID,916.981,VALID,0,VALID,95.5138,VALID,0,VALID,19.6623,VALID,127,VALID,0.721484,
2010-09-26, 01:13:04,VALID,916.964,VALID,0,VALID,95.5367,VALID,0,VALID,19.6623,VALID,127,VALID,0.343359,
2010-09-26, 01:14:04,VALID,916.985,VALID,0,VALID,95.5748,VALID,0,VALID,19.6623,VALID,127,VALID,0.642578,
2010-09-26, 01:15:04,VALID,916.948,VALID,0,VALID,95.6434,VALID,0,VALID,19.6623,VALID,127,VALID,0.716016,
2010-09-26, 01:16:04,VALID,916.935,VALID,0,VALID,95.6434,VALID,0,VALID,19.6428,VALID,127,VALID,0.628516,
2010-09-26, 01:17:04,VALID,916.947,VALID,0,VALID,95.6967,VALID,0,VALID,19.6428,VALID,127,VALID,0.537109,
2010-09-26, 01:18:04,VALID,916.927,VALID,0,VALID,95.7196,VALID,0,VALID,19.6428,VALID,127,VALID,0.396484,
2010-09-26, 01:19:04,VALID,916.914,VALID,0,VALID,95.8263,VALID,0,VALID,19.6233,VALID,127,VALID,1.05039,
2010-09-26, 01:20:04,VALID,916.911,VALID,0,VALID,95.8645,VALID,0,VALID,19.6038,VALID,127,VALID,0.398438,
2010-09-26, 01:21:04,VALID,916.876,VALID,0,VALID,95.9102,VALID,0,VALID,19.5843,VALID,127,VALID,0.376953,
2010-09-26, 01:22:04,VALID,916.86,VALID,0,VALID,95.9864,VALID,0,VALID,19.5648,VALID,127,VALID,0.485156,
2010-09-26, 01:23:04,VALID,916.839,VALID,0,VALID,96.0703,VALID,0,VALID,19.5858,VALID,127,VALID,0.934766,
2010-09-26, 01:24:04,VALID,916.814,VALID,0,VALID,96.1999,VALID,0,VALID,19.5648,VALID,128,VALID,1.13594,
2010-09-26, 01:25:04,VALID,916.832,VALID,0,VALID,96.2914,VALID,0,VALID,19.5648,VALID,127,VALID,0.816406,
2010-09-26, 01:26:04,VALID,916.862,VALID,0,VALID,96.3524,VALID,0,VALID,19.5453,VALID,132,VALID,0.991016,
2010-09-26, 01:27:04,VALID,916.816,VALID,0,VALID,96.4438,VALID,0,VALID,19.5663,VALID,132,VALID,0.86875,
2010-09-26, 01:28:04,VALID,916.812,VALID,0,VALID,96.4591,VALID,0,VALID,19.5258,VALID,132,VALID,0.794922,
2010-09-26, 01:29:04,VALID,916.787,VALID,0,VALID,96.5277,VALID,0,VALID,19.5063,VALID,132,VALID,0.44375,
2010-09-26, 01:30:04,VALID,916.782,VALID,0,VALID,96.5734,VALID,0,VALID,19.5063,VALID,132,VALID,0.331641,
2010-09-26, 01:31:04,VALID,916.8,VALID,0,VALID,96.5887,VALID,0,VALID,19.5063,VALID,132,VALID,0.618359,
2010-09-26, 01:32:04,VALID,916.774,VALID,0,VALID,96.6192,VALID,0,VALID,19.5468,VALID,132,VALID,0.527344,
2010-09-26, 01:33:04,VALID,916.788,VALID,0,VALID,96.6344,VALID,0,VALID,19.5258,VALID,132,VALID,0.0523437,
2010-09-26, 01:34:04,VALID,916.757,VALID,0,VALID,96.6344,VALID,0,VALID,19.5063,VALID,132,VALID,0.335547,
2010-09-26, 01:35:04,VALID,916.779,VALID,0,VALID,96.6497,VALID,0,VALID,19.5258,VALID,132,VALID,0.362891,
2010-09-26, 01:36:04,VALID,916.759,VALID,0,VALID,96.6268,VALID,0,VALID,19.5063,VALID,132,VALID,0.196484,
2010-09-26, 01:37:04,VALID,916.757,VALID,0,VALID,96.6649,VALID,0.107441,VALID,19.5063,VALID,132,VALID,0.233984,
2010-09-26, 01:38:04,VALID,916.764,VALID,0,VALID,96.5811,VALID,0,VALID,19.4868,VALID,132,VALID,0.169531,
2010-09-26, 01:39:04,VALID,916.75,VALID,0,VALID,96.5734,VALID,0,VALID,19.4883,VALID,132,VALID,0,
2010-09-26, 01:40:04,VALID,916.764,VALID,0,VALID,96.5734,VALID,0,VALID,19.4673,VALID,132,VALID,0,
2010-09-26, 01:41:04,VALID,916.776,VALID,0,VALID,96.5887,VALID,0,VALID,19.4883,VALID,132,VALID,0.183984,
2010-09-26, 01:42:04,VALID,916.751,VALID,0,VALID,96.5734,VALID,0,VALID,19.4478,VALID,132,VALID,0,
2010-09-26, 01:43:04,VALID,916.754,VALID,0,VALID,96.5658,VALID,0,VALID,19.4688,VALID,132,VALID,0.467187,
2010-09-26, 01:44:04,VALID,916.74,VALID,0,VALID,96.5887,VALID,0,VALID,19.4478,VALID,132,VALID,0.433594,
2010-09-26, 01:45:04,VALID,916.719,VALID,0,VALID,96.5811,VALID,0,VALID,19.4673,VALID,132,VALID,0.582031,
2010-09-26, 01:46:04,VALID,916.727,VALID,0,VALID,96.5887,VALID,0,VALID,19.4673,VALID,132,VALID,0.409375,
2010-09-26, 01:47:04,VALID,916.689,VALID,0,VALID,96.5734,VALID,0,VALID,19.4673,VALID,132,VALID,0.562891,
2010-09-26, 01:48:04,VALID,916.664,VALID,0,VALID,96.5506,VALID,0,VALID,19.4673,VALID,132,VALID,0.570313,
2010-09-26, 01:49:04,VALID,916.657,VALID,0,VALID,96.5506,VALID,0,VALID,19.4868,VALID,132,VALID,0.482812,
2010-09-26, 01:50:04,VALID,916.654,VALID,0,VALID,96.5124,VALID,0,VALID,19.4673,VALID,132,VALID,0.589063,
2010-09-26, 01:51:04,VALID,916.633,VALID,0,VALID,96.5124,VALID,0,VALID,19.4868,VALID,132,VALID,0.396875,
2010-09-26, 01:52:04,VALID,916.632,VALID,0,VALID,96.4743,VALID,0,VALID,19.4868,VALID,132,VALID,0.445703,
2010-09-26, 01:53:04,VALID,916.618,VALID,0,VALID,96.4591,VALID,0,VALID,19.4868,VALID,132,VALID,0.589063,
2010-09-26, 01:54:04,VALID,916.613,VALID,0,VALID,96.4438,VALID,0,VALID,19.5063,VALID,132,VALID,0.641797,
2010-09-26, 01:55:04,VALID,916.638,VALID,0,VALID,96.3905,VALID,0,VALID,19.4868,VALID,132,VALID,0.752344,
2010-09-26, 01:56:04,VALID,916.636,VALID,0,VALID,96.3219,VALID,0,VALID,19.5063,VALID,132,VALID,0.696484,
2010-09-26, 01:57:04,VALID,916.623,VALID,0,VALID,96.238,VALID,0,VALID,19.5078,VALID,132,VALID,0.855859,
2010-09-26, 01:58:04,VALID,916.62,VALID,0,VALID,96.177,VALID,0,VALID,19.4868,VALID,132,VALID,0.754297,
2010-09-26, 01:59:04,VALID,916.587,VALID,0,VALID,96.1465,VALID,0,VALID,19.5063,VALID,132,VALID,0.830859,
2010-09-26, 02:00:04,VALID,916.591,VALID,0,VALID,96.0627,VALID,0,VALID,19.5258,VALID,132,VALID,0.709766,
2010-09-26, 02:01:04,VALID,916.574,VALID,0,VALID,95.9331,VALID,0,VALID,19.5453,VALID,132,VALID,0.629687,
2010-09-26, 02:02:04,VALID,916.587,VALID,0,VALID,95.7654,VALID,0,VALID,19.5258,VALID,132,VALID,0.469531,
2010-09-26, 02:03:04,VALID,916.561,VALID,0,VALID,95.59,VALID,0,VALID,19.4883,VALID,132,VALID,0.452734,
2010-09-26, 02:04:04,VALID,916.575,VALID,0,VALID,95.59,VALID,0,VALID,19.4478,VALID,132,VALID,0.617188,
2010-09-26, 02:05:04,VALID,916.557,VALID,0,VALID,95.7196,VALID,0,VALID,19.4883,VALID,132,VALID,0.816406,
2010-09-26, 02:06:04,VALID,916.522,VALID,0,VALID,95.712,VALID,0,VALID,19.4673,VALID,132,VALID,0.585156,
2010-09-26, 02:07:04,VALID,916.538,VALID,0,VALID,95.6053,VALID,0,VALID,19.4688,VALID,132,VALID,0.603125,
2010-09-26, 02:08:04,VALID,916.538,VALID,0,VALID,95.5748,VALID,0,VALID,19.4688,VALID,132,VALID,0.626172,
2010-09-26, 02:09:04,VALID,916.51,VALID,0,VALID,95.6815,VALID,0,VALID,19.4478,VALID,132,VALID,0.666016,
2010-09-26, 02:10:04,VALID,916.528,VALID,0,VALID,95.7501,VALID,0,VALID,19.4478,VALID,132,VALID,0.846094,
2010-09-26, 02:11:04,VALID,916.525,VALID,0,VALID,95.7501,VALID,0,VALID,19.4478,VALID,132,VALID,0.609375,
2010-09-26, 02:12:04,VALID,916.546,VALID,0,VALID,95.8035,VALID,0,VALID,19.4883,VALID,132,VALID,0.846484,
2010-09-26, 02:13:04,VALID,916.565,VALID,0,VALID,95.8416,VALID,0,VALID,19.4883,VALID,132,VALID,0.525391,
2010-09-26, 02:14:04,VALID,916.592,VALID,0,VALID,95.9026,VALID,0,VALID,19.5078,VALID,132,VALID,1.15469,
2010-09-26, 02:15:04,VALID,916.615,VALID,0,VALID,95.8873,VALID,0,VALID,19.5078,VALID,132,VALID,0.421484,
2010-09-26, 02:16:04,VALID,916.622,VALID,0,VALID,95.8568,VALID,0,VALID,19.5078,VALID,132,VALID,0.971875,
2010-09-26, 02:17:04,VALID,916.623,VALID,0,VALID,95.9102,VALID,0,VALID,19.5063,VALID,134,VALID,1.16875,
2010-09-26, 02:18:04,VALID,916.645,VALID,0,VALID,95.834,VALID,0,VALID,19.5063,VALID,135,VALID,0.899219,
2010-09-26, 02:19:04,VALID,916.675,VALID,0,VALID,95.8568,VALID,0.107441,VALID,19.5858,VALID,135,VALID,1.17188,
2010-09-26, 02:20:04,VALID,916.697,VALID,0,VALID,95.8187,VALID,0,VALID,19.5648,VALID,135,VALID,0.798437,
2010-09-26, 02:21:04,VALID,916.677,VALID,0,VALID,95.7272,VALID,0,VALID,19.6053,VALID,135,VALID,1.10664,
2010-09-26, 02:22:04,VALID,916.711,VALID,0,VALID,95.6662,VALID,0,VALID,19.6053,VALID,135,VALID,0.772656,
2010-09-26, 02:23:04,VALID,916.708,VALID,0,VALID,95.6205,VALID,0,VALID,19.6038,VALID,135,VALID,0.956641,
2010-09-26, 02:24:04,VALID,916.676,VALID,0,VALID,95.59,VALID,0,VALID,19.6248,VALID,135,VALID,0.824609,
2010-09-26, 02:25:04,VALID,916.672,VALID,0,VALID,95.5443,VALID,0,VALID,19.6038,VALID,135,VALID,0.698828,
2010-09-26, 02:26:04,VALID,916.66,VALID,0,VALID,95.529,VALID,0,VALID,19.6233,VALID,135,VALID,0.85625,
2010-09-26, 02:27:04,VALID,916.648,VALID,0,VALID,95.4452,VALID,0,VALID,19.6443,VALID,135,VALID,0.683203,
2010-09-26, 02:28:04,VALID,916.589,VALID,0,VALID,95.4299,VALID,0,VALID,19.6443,VALID,135,VALID,0.812109,
2010-09-26, 02:29:04,VALID,916.568,VALID,0,VALID,95.4223,VALID,0,VALID,19.6443,VALID,135,VALID,0.603906,
2010-09-26, 02:30:04,VALID,916.554,VALID,0,VALID,95.3842,VALID,0,VALID,19.6443,VALID,135,VALID,0.771094,
2010-09-26, 02:31:04,VALID,916.506,VALID,0,VALID,95.3689,VALID,0.107441,VALID,19.6233,VALID,135,VALID,0.482422,
2010-09-26, 02:32:04,VALID,916.484,VALID,0,VALID,95.4452,VALID,0,VALID,19.6038,VALID,135,VALID,0.666016,
2010-09-26, 02:33:04,VALID,916.474,VALID,0,VALID,95.4604,VALID,0,VALID,19.6248,VALID,135,VALID,0.672266,
2010-09-26, 02:34:04,VALID,916.472,VALID,0,VALID,95.4223,VALID,0,VALID,19.6443,VALID,135,VALID,0.664063,
2010-09-26, 02:35:04,VALID,916.454,VALID,0,VALID,95.3842,VALID,0,VALID,19.6038,VALID,135,VALID,0.698438,
2010-09-26, 02:36:04,VALID,916.42,VALID,0,VALID,95.4452,VALID,0,VALID,19.6248,VALID,135,VALID,0.576953,
2010-09-26, 02:37:04,VALID,916.415,VALID,0,VALID,95.4375,VALID,0,VALID,19.6248,VALID,135,VALID,0.736719,
2010-09-26, 02:38:04,VALID,916.383,VALID,0,VALID,95.4375,VALID,0,VALID,19.6053,VALID,135,VALID,0.505469,
2010-09-26, 02:39:04,VALID,916.365,VALID,0,VALID,95.4604,VALID,0,VALID,19.6248,VALID,135,VALID,0.428125,
2010-09-26, 02:40:04,VALID,916.353,VALID,0,VALID,95.4833,VALID,0,VALID,19.5843,VALID,135,VALID,0.45,
2010-09-26, 02:41:04,VALID,916.347,VALID,0,VALID,95.5214,VALID,0,VALID,19.6248,VALID,135,VALID,0.668359,
2010-09-26, 02:42:04,VALID,916.354,VALID,0,VALID,95.4833,VALID,0,VALID,19.6248,VALID,135,VALID,0.634766,
2010-09-26, 02:43:04,VALID,916.321,VALID,0,VALID,95.4452,VALID,0,VALID,19.6053,VALID,135,VALID,0.863672,
2010-09-26, 02:44:04,VALID,916.31,VALID,0,VALID,95.4604,VALID,0,VALID,19.6053,VALID,135,VALID,0.630859,
2010-09-26, 02:45:04,VALID,916.346,VALID,0,VALID,95.4223,VALID,0,VALID,19.5648,VALID,135,VALID,0.719531,
2010-09-26, 02:46:04,VALID,916.331,VALID,0,VALID,95.4299,VALID,0,VALID,19.6053,VALID,135,VALID,0.689062,
2010-09-26, 02:47:04,VALID,916.289,VALID,0,VALID,95.4985,VALID,0,VALID,19.6053,VALID,135,VALID,0.544922,
2010-09-26, 02:48:04,VALID,916.307,VALID,0,VALID,95.5138,VALID,0,VALID,19.6053,VALID,135,VALID,0.316406,
2010-09-26, 02:49:04,VALID,916.288,VALID,0,VALID,95.59,VALID,0,VALID,19.6038,VALID,135,VALID,0.260547,
2010-09-26, 02:50:04,VALID,916.285,VALID,0,VALID,95.59,VALID,0,VALID,19.6248,VALID,135,VALID,0.369922,
2010-09-26, 02:51:04,VALID,916.296,VALID,0,VALID,95.5595,VALID,0,VALID,19.6248,VALID,135,VALID,0,
2010-09-26, 02:52:04,VALID,916.308,VALID,0,VALID,95.4985,VALID,0,VALID,19.5843,VALID,135,VALID,0,
2010-09-26, 02:53:04,VALID,916.336,VALID,0,VALID,95.3918,VALID,0,VALID,19.5858,VALID,135,VALID,0,
2010-09-26, 02:54:04,VALID,916.333,VALID,0,VALID,95.3156,VALID,0,VALID,19.5468,VALID,135,VALID,0.255078,
2010-09-26, 02:55:04,VALID,916.368,VALID,0,VALID,95.3156,VALID,0,VALID,19.5063,VALID,135,VALID,0,
2010-09-26, 02:56:04,VALID,916.376,VALID,0,VALID,95.4071,VALID,0,VALID,19.5273,VALID,135,VALID,0,
2010-09-26, 02:57:04,VALID,916.347,VALID,0,VALID,95.5138,VALID,0,VALID,19.4883,VALID,135,VALID,0,
2010-09-26, 02:58:04,VALID,916.365,VALID,0,VALID,95.7044,VALID,0,VALID,19.5273,VALID,135,VALID,0.146875,
2010-09-26, 02:59:04,VALID,916.358,VALID,0,VALID,95.8568,VALID,0,VALID,19.5063,VALID,135,VALID,0.148828,
2010-09-26, 03:00:04,VALID,916.401,VALID,0,VALID,95.895,VALID,0,VALID,19.5273,VALID,135,VALID,0,
2010-09-26, 03:01:04,VALID,916.391,VALID,0,VALID,95.9102,VALID,0,VALID,19.4883,VALID,135,VALID,0,
2010-09-26, 03:02:04,VALID,916.402,VALID,0,VALID,95.8797,VALID,0,VALID,19.4688,VALID,135,VALID,0,
2010-09-26, 03:03:04,VALID,916.407,VALID,0,VALID,95.8492,VALID,0,VALID,19.4088,VALID,135,VALID,0,
2010-09-26, 03:04:04,VALID,916.411,VALID,0,VALID,95.9026,VALID,0,VALID,19.4493,VALID,135,VALID,0.306641,
2010-09-26, 03:05:04,VALID,916.418,VALID,0,VALID,95.9712,VALID,0,VALID,19.4493,VALID,135,VALID,0,
2010-09-26, 03:06:04,VALID,916.383,VALID,0,VALID,95.9864,VALID,0,VALID,19.4298,VALID,135,VALID,0,
2010-09-26, 03:07:04,VALID,916.412,VALID,0,VALID,96.0398,VALID,0,VALID,19.4088,VALID,135,VALID,0,
2010-09-26, 03:08:04,VALID,916.434,VALID,0,VALID,96.0703,VALID,0,VALID,19.3893,VALID,135,VALID,0.0460938,
2010-09-26, 03:09:04,VALID,916.438,VALID,0,VALID,96.1618,VALID,0,VALID,19.3893,VALID,135,VALID,0.287109,
2010-09-26, 03:10:04,VALID,916.404,VALID,0,VALID,96.1999,VALID,0,VALID,19.4088,VALID,135,VALID,0.535547,
2010-09-26, 03:11:04,VALID,916.419,VALID,0,VALID,96.2761,VALID,0,VALID,19.4088,VALID,135,VALID,0.647266,
2010-09-26, 03:12:04,VALID,916.419,VALID,0,VALID,96.36,VALID,0,VALID,19.4088,VALID,135,VALID,0.614062,
2010-09-26, 03:13:04,VALID,916.432,VALID,0,VALID,96.3447,VALID,0,VALID,19.4298,VALID,135,VALID,0.829687,
2010-09-26, 03:14:04,VALID,916.41,VALID,0,VALID,96.177,VALID,0,VALID,19.3308,VALID,135,VALID,0.861328,
2010-09-26, 03:15:04,VALID,916.399,VALID,0,VALID,96.0322,VALID,0,VALID,19.2334,VALID,135,VALID,0.845312,
2010-09-26, 03:16:04,VALID,916.395,VALID,0,VALID,96.0474,VALID,0,VALID,19.2348,VALID,135,VALID,0.840625,
2010-09-26, 03:17:04,VALID,916.368,VALID,0,VALID,96.0017,VALID,0,VALID,19.1568,VALID,135,VALID,0.730078,
2010-09-26, 03:18:04,VALID,916.37,VALID,0,VALID,96.0855,VALID,0,VALID,19.1373,VALID,135,VALID,0.706641,
2010-09-26, 03:19:04,VALID,916.38,VALID,0,VALID,96.1694,VALID,0,VALID,19.0983,VALID,135,VALID,0.69375,
2010-09-26, 03:20:04,VALID,916.366,VALID,0,VALID,96.3447,VALID,0,VALID,19.1373,VALID,135,VALID,0.638672,
2010-09-26, 03:21:04,VALID,916.368,VALID,0,VALID,96.4057,VALID,0,VALID,19.1178,VALID,135,VALID,0.439844,
2010-09-26, 03:22:04,VALID,916.35,VALID,0,VALID,96.3905,VALID,0,VALID,19.0774,VALID,135,VALID,0.367188,
2010-09-26, 03:23:04,VALID,916.367,VALID,0,VALID,96.4972,VALID,0,VALID,19.1178,VALID,135,VALID,0.193359,
2010-09-26, 03:24:04,VALID,916.324,VALID,0,VALID,96.5811,VALID,0,VALID,19.1554,VALID,135,VALID,0,
2010-09-26, 03:25:04,VALID,916.369,VALID,0,VALID,96.5963,VALID,0,VALID,19.1749,VALID,135,VALID,0,
2010-09-26, 03:26:04,VALID,916.352,VALID,0,VALID,96.6649,VALID,0,VALID,19.2153,VALID,135,VALID,0,
2010-09-26, 03:27:04,VALID,916.371,VALID,0,VALID,96.6497,VALID,0,VALID,19.2334,VALID,135,VALID,0,
2010-09-26, 03:28:04,VALID,916.363,VALID,0,VALID,96.6725,VALID,0,VALID,19.2738,VALID,135,VALID,0.148828,
2010-09-26, 03:29:04,VALID,916.377,VALID,0,VALID,96.6649,VALID,0,VALID,19.3113,VALID,135,VALID,0.000390625,
2010-09-26, 03:30:04,VALID,916.387,VALID,0,VALID,96.6192,VALID,0,VALID,19.3113,VALID,135,VALID,0,
2010-09-26, 03:31:04,VALID,916.382,VALID,0,VALID,96.5201,VALID,0,VALID,19.2933,VALID,135,VALID,0,
2010-09-26, 03:32:04,VALID,916.385,VALID,0,VALID,96.4667,VALID,0,VALID,19.2738,VALID,135,VALID,0,
2010-09-26, 03:33:04,VALID,916.398,VALID,0,VALID,96.421,VALID,0,VALID,19.2139,VALID,135,VALID,0,
2010-09-26, 03:34:04,VALID,916.369,VALID,0,VALID,96.3524,VALID,0,VALID,19.1958,VALID,135,VALID,0,
2010-09-26, 03:35:04,VALID,916.362,VALID,0,VALID,96.2914,VALID,0,VALID,19.1763,VALID,135,VALID,0,
2010-09-26, 03:36:04,VALID,916.365,VALID,0,VALID,96.2914,VALID,0,VALID,19.1763,VALID,135,VALID,0,
2010-09-26, 03:37:04,VALID,916.399,VALID,0,VALID,96.299,VALID,0,VALID,19.1763,VALID,135,VALID,0,
2010-09-26, 03:38:04,VALID,916.424,VALID,0,VALID,96.3219,VALID,0,VALID,19.1554,VALID,135,VALID,0,
2010-09-26, 03:39:04,VALID,916.405,VALID,0,VALID,96.3219,VALID,0,VALID,19.1568,VALID,135,VALID,0,
2010-09-26, 03:40:04,VALID,916.426,VALID,0,VALID,96.2533,VALID,0,VALID,19.0983,VALID,135,VALID,0,
2010-09-26, 03:41:04,VALID,916.435,VALID,0,VALID,96.116,VALID,0,VALID,19.0398,VALID,135,VALID,0,
2010-09-26, 03:42:04,VALID,916.431,VALID,0,VALID,96.0932,VALID,0,VALID,19.0398,VALID,135,VALID,0,
2010-09-26, 03:43:04,VALID,916.444,VALID,0,VALID,96.177,VALID,0,VALID,19.0398,VALID,135,VALID,0,
2010-09-26, 03:44:04,VALID,916.432,VALID,0,VALID,96.2837,VALID,0,VALID,19.0788,VALID,135,VALID,0,
2010-09-26, 03:45:04,VALID,916.457,VALID,0,VALID,96.3905,VALID,0,VALID,19.1178,VALID,135,VALID,0,